Regional Weather Roundup
Issued by NWS

Home | Current Version | Previous Version | Graphics & Text | Print | Product List | Glossary On
Versions: 1 2 3 4 5 6 7 8 9 10 11 12 13 14 15 16 17 18 19 20 21 22 23 24 25 26 27 28 29 30 31 32 33 34 35 36 37 38 39 40 41 42 43 44 45 46 47 48 49 50
000
ASUS45 KCYS 052210
RWRWY

WYOMING REGIONAL WEATHER ROUNDUP
NATIONAL WEATHER SERVICE CHEYENNE WY
300 PM MST MON DEC 05 2016

NOTE:  "FAIR" INDICATES FEW OR NO CLOUDS BELOW 12,000 FEET
WITH NO SIGNIFICANT WEATHER AND/OR OBSTRUCTIONS TO VISIBILITY.

WYZ001-052300-
YELLOWSTONE NATIONAL PARK

CITY           SKY/WX    TMP DP  RH WIND       PRES   REMARKS
LK YELLOWSTONE   N/A      7  -1  70 W8        29.81R WCI  -6
W YELLOWSTONE  NOT AVBL

$$
WYZ002>013-054>058-071-098>099-052300-
NORTHERN WYOMING

CITY           SKY/WX    TMP DP  RH WIND       PRES   REMARKS
JACKSON        PTSUNNY  N/A N/A N/A W13       29.90R
CODY           FLURRIES  17  10  74 N10       29.90R WCI   5
GREYBULL       CLOUDY    25   4  40 NW22      29.91R WCI  10
WORLAND        CLOUDY    23  11  60 NW13      29.91R WCI  11
SHERIDAN       FAIR      20  11  68 NW22      29.91R WCI   3
BUFFALO        FAIR      19   9  65 NW28G40   29.81R BLWGSNOWWCI   1
GILLETTE       PTSUNNY   19  12  74 NW18      29.83R WCI   4
HULETT         FLURRIES  21  14  73 NW12G18   29.82R WCI   9
NEWCASTLE      FLURRIES  21  12  68 NW23G33   29.80R WCI   5

$$
WYZ014>020-022>026-101>103-052300-
CENTRAL WYOMING

CITY           SKY/WX    TMP DP  RH WIND       PRES   REMARKS
BIG PINEY      FAIR      16  -6  37 NW17      29.88R WCI   0
PINEDALE       FAIR      14   0  52 NW13G18   29.87R WCI   0
DUBOIS         FLURRIES   9   0  66 NW20      29.79R WCI -11
LANDER         FAIR      22  -6  29 W20G30    29.82R WCI   7
RIVERTON       FAIR      22 -11  23 NW23G32   29.84R WCI   6
CASPER         CLOUDY    18  16  92 CALM      29.83R
DOUGLAS        FLURRIES  19  12  74 NW16      29.84R WCI   4

$$
WYZ021-027>030-104>119-052300-
SOUTHERN WYOMING

CITY           SKY/WX    TMP DP  RH WIND       PRES   REMARKS
EVANSTON       FAIR      19 -17  19 W14       29.90R WCI   6
FORT BRIDGER   FAIR      21  -5  31 N8        29.93R WCI  12
ROCK SPRINGS   FAIR      18  -4  37 W23G30    29.88R WCI   0
DIXON          CLOUDY    21  -4  33 W12       29.90S WCI   9
RAWLINS        FAIR      20  -3  36 W25G35    29.79R WCI   2
SARATOGA       CLOUDY    19   0  42 W14G21    29.81S WCI   6
LARAMIE        CLOUDY    18  -7  32 W23G29    29.73R WCI   0
CHEYENNE       CLOUDY    25 -14  17 NW25G39   29.75R WCI   9
TORRINGTON     LGT SNOW  25  18  74 NW17      29.83R WCI  12
PINE BLUFFS    FAIR      30   5  34 NW35G48   29.72R WCI  14

$$



USA.gov is the U.S. government's official web portal to all federal, state and local government web resources and services.